Weather History for KPBG - August, 2012

Change the Weather History Date:

Friday, August 31, 2012

  Actual Average Record
Temperature  
Mean Temperature 71 °F 65 °F  
Max Temperature 77 °F 77 °F 93 °F (2010)
Min Temperature 64 °F 53 °F 39 °F (1965)
Degree Days  
Heating Degree Days 0 2  
Month to date heating degree days 27  
Since 1 June heating degree days 126  
Since 1 July heating degree days 41  
Cooling Degree Days 6 2  
Month to date cooling degree days 166 109  
Year to date cooling degree days 471 322  
Since 1 June cooling degree days 435 314  
Growing Degree Days 22 (Base 50)    
Moisture  
Dew Point 59 °F    
Average Humidity 64    
Maximum Humidity 87    
Minimum Humidity 41    
Precipitation  
Precipitation 0.02 in - 2.90 in (1954)
Month to date precipitation 2.36  
Year to date precipitation 16.25  
Sea Level Pressure  
Sea Level Pressure 29.83 in    
Wind  
Wind Speed 5 mph (SW)    
Max Wind Speed 15 mph    
Max Gust Speed 28 mph    
Visibility 10 miles    
Events Rain    
T = Trace of Precipitation, MM = Missing Value Source: NWS Daily Summary

Daily Weather History Graph

Daily Weather History Graph

Search for Another Location

Airport or City:

Trip Planner

Search our weather history database for the weather conditions in past years. The results will help you decide how hot, cold, wet, or windy it might be!

Date:

Astronomy

Aug. 31, 2012 Rise Set
Actual Time 6:15 AM EDT 7:31 PM EDT
Civil Twilight 5:45 AM EDT 8:01 PM EDT
Nautical Twilight 5:09 AM EDT 8:37 PM EDT
Astronomical Twilight 4:30 AM EDT 9:15 PM EDT
Moon 7:12 PM EDT (8/31) 6:20 AM EDT (8/31)
Length of Visible Light 14h 16m
Length of Day
13h 15m
Full, 100% of the Moon is Illuminated
Aug 31
Full
Sep 8
Last Quarter
Sep 15
New
Sep 22
First Quarter
Sep 29
Full

Hourly Weather History & Observations

Time (EDT) Temp. Dew Point Humidity Pressure Visibility Wind Dir Wind Speed Gust Speed Precip Events Conditions
12:53 AM 77.0 °F 53.1 °F 43% 29.89 in 10.0 mi SSW 10.4 mph 21.9 mph N/A   Clear
1:53 AM 77.0 °F 53.1 °F 43% 29.88 in 10.0 mi SW 10.4 mph 23.0 mph N/A   Clear
2:53 AM 75.9 °F 53.1 °F 45% 29.86 in 10.0 mi Variable 3.5 mph - N/A   Clear
3:53 AM 75.0 °F 51.1 °F 43% 29.86 in 10.0 mi Variable 5.8 mph - N/A   Clear
4:53 AM 75.9 °F 50.0 °F 40% 29.85 in 10.0 mi SW 9.2 mph 19.6 mph N/A   Clear
5:53 AM 75.0 °F 50.0 °F 41% 29.85 in 10.0 mi Variable 5.8 mph - N/A   Clear
6:53 AM 75.0 °F 52.0 °F 44% 29.84 in 10.0 mi WSW 8.1 mph - N/A   Clear
7:53 AM 73.9 °F 53.1 °F 48% 29.84 in 10.0 mi SW 10.4 mph 17.3 mph N/A   Clear
8:53 AM 75.0 °F 54.0 °F 48% 29.85 in 10.0 mi WSW 6.9 mph - N/A   Clear
9:53 AM 75.0 °F 55.9 °F 51% 29.82 in 10.0 mi SSW 6.9 mph - N/A   Clear
10:53 AM 71.1 °F 60.1 °F 68% 29.85 in 10.0 mi Calm Calm - 0.00 in Rain Light Rain
11:53 AM 69.1 °F 63.0 °F 81% 29.83 in 10.0 mi Variable 5.8 mph - 0.01 in Rain Light Rain
12:53 PM 72.0 °F 63.0 °F 73% 29.82 in 10.0 mi South 5.8 mph - 0.01 in Rain Light Rain
1:53 PM 73.9 °F 63.0 °F 68% 29.79 in 10.0 mi SE 6.9 mph - 0.00 in   Scattered Clouds
2:53 PM 75.0 °F 63.0 °F 66% 29.77 in 10.0 mi SE 5.8 mph - 0.00 in Rain Light Rain
3:53 PM 75.9 °F 64.0 °F 67% 29.76 in 10.0 mi Calm Calm - 0.00 in   Overcast
4:53 PM 73.9 °F 63.0 °F 68% 29.77 in 10.0 mi NNE 5.8 mph - N/A   Overcast
5:53 PM 72.0 °F 64.9 °F 78% 29.78 in 10.0 mi Calm Calm - N/A   Mostly Cloudy
6:53 PM 71.1 °F 64.9 °F 81% 29.78 in 10.0 mi Calm Calm - N/A   Scattered Clouds
7:53 PM 70.0 °F 64.9 °F 84% 29.82 in 10.0 mi North - - N/A   Mostly Cloudy
8:53 PM 71.1 °F 64.9 °F 81% 29.84 in 10.0 mi North - - N/A   Mostly Cloudy
9:53 PM 69.1 °F 64.9 °F 87% 29.85 in 10.0 mi West 3.5 mph - N/A   Clear
10:53 PM 68.0 °F 64.0 °F 87% 29.85 in 10.0 mi Calm Calm - N/A   Scattered Clouds
11:53 PM 71.1 °F 64.0 °F 78% 29.86 in 10.0 mi West 4.6 mph - N/A   Partly Cloudy